Location: Chervonnoye
(48.6000°N, 34.4000°E)
Time: 11:30:45
(UTC+00:00)

deb Kosmos-2237 - Pass Details

Date: 17 June 2021
Orbit: 850 x 1045 km, 71.0° (Epoch: 25 July)

Event Time Altitude Azimuth Distance (km) Brightness Sun altitude
Rises 19:47:49 0° 218° (SW) 3,543 ? -13.5°
Reaches altitude 10° 19:50:18 10° 222° (SW) 2,632 ? -13.7°
Maximum altitude 19:56:21 62° 303° (WNW) 1,087 ? -14.1°
Drops below altitude 10° 20:02:46 10° 24° (NNE) 2,783 ? -14.6°
Sets 20:05:28 0° 28° (NNE) 3,760 ? -14.7°
